When you browse on this site, cookies collect data to enhance your experience and personalize the content and advertising you see.
Visit our Privacy Policy to learn more. By continuing to use the site, you agree to this use of cookies and data.
  • In Czech Republic
  • List of Countries
  • For 7 days
  • Water Temperature
  • Satellite Maps
  • Weather Map
  • Weather Widgets
  • user-avatar
    Login

    Hourly Weather Brusy

    Today, 21 May, Tuesday

    Time Temperature Precipitation Wind Pressure Humidity
    00:00 +18°C° 0 mm 4 mps 747 mmHg 74%
    01:00 +17°C° 0 mm 4 mps 746 mmHg 74%
    02:00 +17°C° 0 mm 3 mps 746 mmHg 76%
    03:00 +15°C° 0 mm 4 mps 746 mmHg 75%
    04:00 +15°C° 0 mm 4 mps 746 mmHg 75%
    05:00 +15°C° 0 mm 4 mps 746 mmHg 74%
    06:00 +16°C° 0 mm 5 mps 746 mmHg 70%
    07:00 +19°C° 0 mm 5 mps 746 mmHg 65%
    08:00 +20°C° 0 mm 5 mps 746 mmHg 60%
    09:00 +22°C° 0 mm 6 mps 746 mmHg 55%
    10:00 +23°C° 0 mm 6 mps 746 mmHg 51%
    11:00 +24°C° 0 mm 6 mps 746 mmHg 47%
    12:00 +24°C° 0 mm 6 mps 745 mmHg 47%
    13:00 +26°C° 0 mm 6 mps 745 mmHg 47%
    14:00 +26°C° 0 mm 5 mps 745 mmHg 47%
    15:00 +25°C° 0.2 mm 5 mps 744 mmHg 57%
    16:00 +22°C° 0.2 mm 5 mps 744 mmHg 67%
    17:00 +20°C° 0.2 mm 4 mps 744 mmHg 77%
    18:00 +19°C° 0 mm 4 mps 743 mmHg 80%
    19:00 +19°C° 0 mm 4 mps 743 mmHg 83%
    20:00 +18°C° 0 mm 4 mps 743 mmHg 86%
    21:00 +17°C° 0 mm 3 mps 743 mmHg 89%
    22:00 +17°C° 0 mm 3 mps 743 mmHg 92%
    23:00 +16°C° 0 mm 3 mps 743 mmHg 95%

    Tomorrow, 22 May, Wednesday

    Time Temperature Precipitation Wind Pressure Humidity
    00:00 +14°C° 0 mm 3 mps 743 mmHg 96%
    01:00 +14°C° 0 mm 3 mps 742 mmHg 97%
    02:00 +14°C° 0 mm 3 mps 742 mmHg 98%
    03:00 +14°C° 0 mm 3 mps 742 mmHg 98%
    04:00 +14°C° 0 mm 2 mps 742 mmHg 98%
    05:00 +14°C° 0 mm 2 mps 742 mmHg 98%
    06:00 +16°C° 0 mm 2 mps 742 mmHg 89%
    07:00 +17°C° 0 mm 2 mps 742 mmHg 80%
    08:00 +19°C° 0 mm 2 mps 742 mmHg 71%
    09:00 +21°C° 0 mm 3 mps 742 mmHg 63%
    10:00 +22°C° 0 mm 3 mps 742 mmHg 56%
    11:00 +24°C° 0 mm 3 mps 742 mmHg 48%
    12:00 +25°C° 0 mm 3 mps 742 mmHg 46%
    13:00 +25°C° 0 mm 2 mps 742 mmHg 43%
    14:00 +26°C° 0 mm 2 mps 741 mmHg 41%
    15:00 +26°C° 0 mm 2 mps 741 mmHg 43%
    16:00 +25°C° 0 mm 2 mps 741 mmHg 45%
    17:00 +25°C° 0 mm 2 mps 741 mmHg 47%
    18:00 +23°C° 0 mm 1 mps 741 mmHg 53%
    19:00 +22°C° 0 mm 1 mps 741 mmHg 58%
    20:00 +20°C° 0 mm 1 mps 741 mmHg 64%
    21:00 +19°C° 0 mm 1 mps 741 mmHg 68%
    22:00 +18°C° 0 mm 1 mps 741 mmHg 71%
    23:00 +16°C° 0 mm 1 mps 741 mmHg 75%

    Day after tomorrow, 23 May, Thursday

    Time Temperature Precipitation Wind Pressure Humidity
    00:00 +15°C° 0 mm 1 mps 741 mmHg 79%
    01:00 +15°C° 0 mm 1 mps 741 mmHg 82%
    02:00 +14°C° 0 mm 1 mps 741 mmHg 86%
    03:00 +14°C° 0 mm 1 mps 741 mmHg 86%
    04:00 +15°C° 0 mm 1 mps 741 mmHg 86%
    05:00 +15°C° 0 mm 1 mps 741 mmHg 85%
    06:00 +18°C° 0 mm 1 mps 741 mmHg 77%
    07:00 +20°C° 0 mm 1 mps 741 mmHg 69%
    08:00 +22°C° 0 mm 1 mps 741 mmHg 60%
    09:00 +23°C° 0 mm 1 mps 741 mmHg 54%
    10:00 +25°C° 0 mm 2 mps 741 mmHg 48%
    11:00 +26°C° 0 mm 2 mps 741 mmHg 42%
    12:00 +26°C° 0 mm 2 mps 741 mmHg 42%
    13:00 +26°C° 0 mm 2 mps 741 mmHg 41%
    14:00 +27°C° 0 mm 2 mps 741 mmHg 41%
    15:00 +26°C° 0 mm 2 mps 741 mmHg 43%
    16:00 +26°C° 0 mm 2 mps 741 mmHg 46%
    17:00 +26°C° 0 mm 2 mps 740 mmHg 48%
    18:00 +24°C° 0 mm 2 mps 741 mmHg 53%
    19:00 +23°C° 0 mm 1 mps 741 mmHg 57%
    20:00 +21°C° 0 mm 1 mps 741 mmHg 62%
    21:00 +20°C° 0 mm 1 mps 741 mmHg 65%
    22:00 +19°C° 0 mm 1 mps 741 mmHg 68%
    23:00 +18°C° 0 mm 1 mps 741 mmHg 71%

    24 May, Friday

    Time Temperature Precipitation Wind Pressure Humidity
    00:00 +16°C° 0 mm 1 mps 741 mmHg 74%
    01:00 +16°C° 0 mm 1 mps 741 mmHg 77%
    02:00 +15°C° 0 mm 1 mps 741 mmHg 80%
    03:00 +15°C° 0 mm 1 mps 741 mmHg 80%
    04:00 +15°C° 0 mm 1 mps 741 mmHg 81%
    05:00 +15°C° 0 mm 1 mps 741 mmHg 82%
    06:00 +19°C° 0 mm 1 mps 741 mmHg 74%
    07:00 +21°C° 0 mm 1 mps 741 mmHg 67%
    08:00 +23°C° 0 mm 1 mps 741 mmHg 59%
    09:00 +24°C° 0 mm 1 mps 741 mmHg 54%
    10:00 +26°C° 0 mm 2 mps 741 mmHg 48%
    11:00 +27°C° 0 mm 2 mps 741 mmHg 43%
    12:00 +27°C° 0 mm 2 mps 741 mmHg 44%
    13:00 +27°C° 0 mm 2 mps 741 mmHg 45%
    14:00 +26°C° 0 mm 3 mps 741 mmHg 46%
    15:00 +26°C° 0.1 mm 2 mps 741 mmHg 49%
    16:00 +26°C° 0.1 mm 2 mps 740 mmHg 53%
    17:00 +25°C° 0.1 mm 2 mps 740 mmHg 56%
    18:00 +23°C° 0.2 mm 2 mps 740 mmHg 66%
    19:00 +20°C° 0.2 mm 2 mps 740 mmHg 76%
    20:00 +18°C° 0.2 mm 2 mps 740 mmHg 86%
    21:00 +18°C° 0.5 mm 2 mps 740 mmHg 89%
    22:00 +17°C° 0.5 mm 2 mps 740 mmHg 92%
    23:00 +16°C° 0.5 mm 1 mps 740 mmHg 95%

    25 May, Saturday

    Time Temperature Precipitation Wind Pressure Humidity
    00:00 +16°C° 0.1 mm 1 mps 739 mmHg 95%
    01:00 +16°C° 0.1 mm 1 mps 739 mmHg 95%
    02:00 +15°C° 0.1 mm 1 mps 739 mmHg 96%
    03:00 +15°C° 0 mm 1 mps 739 mmHg 96%
    04:00 +15°C° 0 mm 1 mps 739 mmHg 96%
    05:00 +15°C° 0 mm 2 mps 739 mmHg 97%
    06:00 +16°C° 0.2 mm 2 mps 739 mmHg 95%
    07:00 +16°C° 0.2 mm 2 mps 739 mmHg 94%
    08:00 +16°C° 0.2 mm 3 mps 739 mmHg 93%
    09:00 +17°C° 0.5 mm 3 mps 739 mmHg 88%
    10:00 +18°C° 0.5 mm 3 mps 739 mmHg 83%
    11:00 +19°C° 0.5 mm 3 mps 739 mmHg 79%
    12:00 +20°C° 0.3 mm 4 mps 739 mmHg 71%
    13:00 +21°C° 0.3 mm 4 mps 739 mmHg 63%
    14:00 +22°C° 0.3 mm 4 mps 738 mmHg 55%
    15:00 +22°C° 0.1 mm 4 mps 738 mmHg 53%
    16:00 +22°C° 0.1 mm 4 mps 738 mmHg 50%
    17:00 +22°C° 0.1 mm 4 mps 738 mmHg 48%
    18:00 +20°C° 0 mm 3 mps 738 mmHg 55%
    19:00 +18°C° 0 mm 3 mps 738 mmHg 62%
    20:00 +16°C° 0 mm 3 mps 738 mmHg 69%
    21:00 +14°C° 0 mm 3 mps 738 mmHg 75%
    22:00 +13°C° 0 mm 3 mps 738 mmHg 81%
    23:00 +13°C° 0 mm 3 mps 738 mmHg 87%

    26 May, Sunday

    Time Temperature Precipitation Wind Pressure Humidity
    00:00 +12°C° 0 mm 3 mps 739 mmHg 87%
    01:00 +11°C° 0 mm 3 mps 739 mmHg 87%
    02:00 +11°C° 0 mm 3 mps 739 mmHg 87%
    03:00 +10°C° 0 mm 3 mps 739 mmHg 87%
    04:00 +9°C° 0 mm 3 mps 739 mmHg 87%
    05:00 +9°C° 0 mm 3 mps 739 mmHg 87%
    06:00 +10°C° 0 mm 3 mps 739 mmHg 81%
    07:00 +11°C° 0 mm 4 mps 740 mmHg 75%
    08:00 +13°C° 0 mm 4 mps 740 mmHg 69%
    09:00 +13°C° 0 mm 4 mps 740 mmHg 68%
    10:00 +14°C° 0 mm 4 mps 740 mmHg 67%
    11:00 +14°C° 0 mm 4 mps 740 mmHg 65%
    12:00 +14°C° 0.1 mm 4 mps 739 mmHg 66%
    13:00 +14°C° 0.1 mm 5 mps 739 mmHg 66%
    14:00 +14°C° 0.1 mm 5 mps 739 mmHg 67%
    15:00 +14°C° 0.1 mm 5 mps 739 mmHg 65%
    16:00 +14°C° 0.1 mm 5 mps 739 mmHg 63%
    17:00 +15°C° 0.1 mm 5 mps 738 mmHg 61%
    18:00 +14°C° 0 mm 4 mps 738 mmHg 67%
    19:00 +13°C° 0 mm 4 mps 738 mmHg 73%
    20:00 +12°C° 0 mm 3 mps 738 mmHg 79%
    21:00 +11°C° 0 mm 3 mps 738 mmHg 82%
    22:00 +11°C° 0 mm 4 mps 738 mmHg 86%
    23:00 +10°C° 0 mm 4 mps 738 mmHg 89%
    Show more